WGS F6 (USA 244)

Last updated on Oct. 31, 2020, 5:53 a.m. UTC

1 39222U 13041A   20304.62311215  .00000094  00000-0  00000-0 0  9990
2 39222   0.0116 241.4909 0000499  20.8433 226.2143  1.00272245 25447
UTC
Height (km)
Latitude
Longitude
Inclination
Orbital Period
UTC large
Height (km)
Speed (km/s)
/
Latitude / Longitude
Inclination (degrees)
Orbital Period (minutes)
Azimuth
Elevation
Range (km)
Doppler Factor
iOS Compass Heading
iOS Angle

Next 30 passes for location: Hong Kong

Rise time Rise Azimuth (degrees) Set time Set Azimuth (degrees) Duration Max altitude (degrees)

No matching passes for this satellites